Terug naar catalogus

STARLINK-1266

ActiefCommunicatieVLEO
NORAD 45383·PAYLOAD·🇺🇸 United States

Gelanceerd Mar 18, 2020 vanaf Cape Canaveral Space Force Station

Loading…

Volgende Passages (komende 24 uur)

TLE

VersSource: CelesTrak SupGP

Epoch: Sep 15, 2026, 01:12 UTC

1 45383C 20019Z   26258.05048611  .00094842  00000+0  59105-3 0  2580
2 45383  53.0406 286.9107 0001682  31.9071 343.3879 15.76182751    15

Volg STARLINK-1266 in realtime met AllMySat

Download on the App Store